Location: Dungans Crossing
(38.2331°N, 99.6618°W)
Time: 14:37:40
(UTC+00:00)

Daily predictions for brighter satellites

Satellite Brightness Start Highest point End
(mag) Time Altitude Azimuth Time Altitude Azimuth Time Altitude Azimuth
OAO 3 Rocket 4.1 12:04:50 24° WSW 12:06:57 36° SSW 12:11:17 10° SE
Cosmos 1709 Rocket 4.2 12:01:16 10° SSW 12:07:22 49° W 12:13:34 10° N
BREEZE-M DEB (TANK) 4.3 12:03:46 10° SW 12:08:27 64° SE 12:15:43 10° ENE
Cosmos 1844 Rocket 3.9 12:04:58 10° S 12:10:17 46° ESE 12:15:40 10° NE
SJ-12 4.1 12:06:45 10° N 12:10:39 47° WNW 12:14:32 10° SSW
Meteor 1-26 Rocket 4.2 12:06:50 10° N 12:12:40 88° W 12:18:16 10° S
Meteor PRIRODA 3.7 12:12:30 10° N 12:16:11 57° WNW 12:19:50 10° SSW
Cosmos 1898 Rocket 3.9 12:11:23 10° S 12:16:38 68° ESE 12:21:55 10° NNE
NOSS 3-4 (A) 3.6 12:12:01 10° WSW 12:17:38 46° NW 12:23:37 10° NNE
NOSS 3-4 (C) 3.6 12:12:07 10° SW 12:17:46 47° NW 12:23:45 10° NNE
NOSS 3-2 (C) 4.2 12:13:14 12° NW 12:20:32 66° WSW 12:29:07 10° SSE
Cosmos 1689 Rocket 2.1 12:20:05 10° S 12:22:52 49° W 12:24:54 16° NNW
ATLAS 5 CENTAUR R/B 4.4 12:24:24 12° NW 12:24:24 12° NW 12:25:18 10° NNW
GPS 2-04 Rocket1 3.3 12:21:20 14° WSW 12:24:26 48° S 12:28:01 10° E
ATLAS CENTAUR R/B 3.8 12:24:19 10° NNE 12:26:29 14° NE 12:28:41 10° E
Cosmos 1933 3.9 12:22:50 10° NNW 12:26:36 36° W 12:30:21 10° SSW
Cosmos 1606 4.3 12:29:45 16° W 12:29:45 16° W 12:31:46 10° SW
PSLV R/B 3.7 12:26:26 10° NNE 12:30:21 89° W 12:34:07 10° SSW
Cosmos 2084 3.8 12:27:20 16° NW 12:30:47 50° WSW 12:35:07 10° SSE
Envisat 3.3 12:26:00 10° NNE 12:31:05 72° E 12:36:09 10° S
ASTRO F (AKARI) 4.2 12:28:41 10° N 12:31:42 53° WNW 12:34:45 10° SSW
Meteor 2-3 Rocket 4.1 12:28:00 10° SW 12:33:19 41° WNW 12:38:45 10° N
USA 234 3.2 12:27:21 10° NE 12:33:51 69° NW 12:40:19 10° WSW
Cosmos 2263 Rocket 3.2 12:29:52 10° WSW 12:34:21 24° NW 12:38:52 10° N
H-2A R/B 2.7 12:30:46 10° NNE 12:34:36 67° ESE 12:38:23 10° S
Cosmos 2074 Rocket 3.9 12:29:16 10° S 12:35:29 78° W 12:41:43 10° N
CENTAUR R/B 3.5 12:27:43 10° NW 12:35:53 55° WSW 12:44:27 10° S
ATLAS 2AS CENTAUR R/B 3.2 12:29:34 10° SW 12:37:16 52° NW 12:44:57 10° NNE
RESURS DK-1 2.3 12:33:11 10° SSW 12:37:20 90° SW 12:41:31 10° NNE
SL-4 R/B 3.9 12:37:42 11° NW 12:39:18 13° NNW 12:41:10 10° NNE
Cosmos 1937 Rocket 3.6 12:34:29 10° SSW 12:39:36 79° ESE 12:44:47 10° NNE
Cosmos 1782 2.9 12:38:11 10° NNW 12:42:06 52° W 12:46:01 10° S
COSMOS 2455 4.4 12:37:58 10° S 12:43:33 42° ESE 12:49:10 10° NE
FALCON 9 DEB 3.2 12:41:35 10° WSW 12:44:40 47° NW 12:47:48 10° NE
SJ-7 4.5 12:41:50 10° N 12:45:47 56° WNW 12:49:47 10° SSW
Aureole 2 Rocket 3.9 12:45:23 10° S 12:47:41 30° ESE 12:49:58 10° NE
Cosmos 2184 Rocket 4.0 12:42:29 10° SSW 12:48:42 64° W 12:55:01 10° N
Cosmos 1515 Rocket 3.7 12:46:02 10° NNW 12:50:25 56° W 12:54:46 10° S
CZ-4B R/B 3.8 12:46:00 10° NNE 12:51:18 61° ESE 12:56:39 10° S
Cosmos 405 Rocket 2.5 12:49:48 10° S 12:53:28 86° W 12:57:11 10° N
Meteor 1-4 Rocket 3.6 12:50:41 10° NW 12:53:32 24° W 12:56:21 10° SSW
CZ-2C R/B 3.7 12:48:21 10° SE 12:53:39 49° ENE 12:58:53 10° N
Genesis I 3.1 12:50:11 10° SW 12:53:58 71° WNW 12:57:49 10° NNE
Lacrosse 5 2.5 12:52:13 10° WSW 12:56:53 36° NW 13:01:34 10° NNE
Lacrosse 4 Rocket 1.9 12:56:32 10° NW 13:00:42 46° WSW 13:04:55 10° S
AQUARIUS 4.5 12:56:17 10° NNE 13:00:48 75° ESE 13:05:15 10° S
Cosmos 923 Rocket 4.4 12:55:52 10° NNW 13:00:53 45° WSW 13:05:54 10° S
Cosmos 858 Rocket 4.5 12:56:40 10° SSW 13:01:49 66° WNW 13:07:02 10° NNE
SL-24 DEB 4.3 12:58:16 10° S 13:03:01 84° W 13:07:48 10° N
BREEZE-M (TANK) 3.7 12:52:49 10° SW 13:03:16 68° SE 13:06:21 10° ENE
Okean O Rocket 1.8 12:58:54 10° NNE 13:03:21 79° ESE 13:07:48 10° S
Cosmos 1812 2.7 13:01:52 10° N 13:05:43 81° W 13:09:32 10° S
Cosmos 1943 4.3 13:02:13 10° NW 13:06:42 24° WSW 13:11:10 10° SSW
Cosmos 1743 Rocket 3.6 23:38:53 10° N 23:43:22 79° E 23:47:48 10° S
Envisat 3.0 23:38:46 10° SSE 23:43:50 80° ENE 23:48:56 10° N
Cosmos 1862 3.3 23:41:06 10° N 23:45:07 67° E 23:49:05 10° SSE
COSMO-SKYMED 1 4.1 23:42:30 10° NE 23:45:19 17° E 23:48:09 10° SE
Cosmos 2184 Rocket 4.3 23:40:53 10° N 23:47:17 82° W 23:53:36 10° S
COSMOS 2428 4.3 23:42:52 10° WSW 23:48:01 34° WNW 23:53:12 10° N
Sich 1 3.8 23:45:03 10° NNE 23:48:57 31° ENE 23:52:49 10° SE
SL-24 R/B - RUBIN 2 4.4 23:45:15 10° NNW 23:51:21 56° NE 23:56:43 10° SE
NOAA 12 4.2 23:46:48 10° SSE 23:51:59 55° ENE 23:57:11 10° N
USA 267 4.4 23:48:17 10° ENE 23:53:12 23° NNE 23:58:07 10° NNW
CZ-4C R/B 4.1 23:50:03 10° N 23:53:35 50° WNW 23:57:04 10° SSW
